Showing default

CYGFM01, 41887

Orbit data source: Space-Track

CYGFM01, 41887 is an American payload satellite in LEO that was launched on Thu, 15 Dec 2016 UTC via a PEGASUS XL launch vehicle from the Pegasus Launch, Eastern Range Air Space (ERAS). Payloads include a variety of satellites, spacecraft, and rockets equipped with specific instruments for various scientific and technological missions. These include communications satellites like Starlink; space stations such as the ISS; scientific satellites like the Hubble; Earth observation satellites from companies like Planet Labs, Umbra, and HawkEye 360; GPS; miniature CubeSats for education and research; and military/defense satellites.

Loading next visibility...
CYGFM01 details
Identifier
41887, 2016-078D
Orbit
LEO
Last TLE update15 hours ago
Origin
Flag of USLARCN/SWRIB (US)
ManufacturerSST-US
MissionExtended mission Civil Science
Bus & MotorCYGNSS, Unknown motor
Mass29 kg wet, 29 kg dry
Launch date (UTC)
2016-12-15 (8 years ago)
Launch vehicle
PEGASUS XL
Launch site
Pegasus Launch, Eastern Range Air Space (ERAS)
Object type
Payload
Rocket body
Debris
Shape & HBRHalf Hex Cyl + 2 Pan, 1.7 m
Radar Cross Section0.450 m², Medium (>0.1 m² and < 1m²)

Expand to show TLE details & history

TLE from 15 hours ago
0 CYGFM01
1 41887U 16078D   24361.16479363  .00020310  00000-0  60209-3 0  9991
2 41887  34.9443 163.8507 0009560 132.4179 227.7348 15.33888969445437
Epoch: 2024-12-26T03:57Z
Definitive object data (Epoch: 2024-12-26T03:57:18.169Z)
Latitude-0.00002°
Longitude9.37685°
Altitude467.52 km
Speed7.632 km/s
True Right ascension10h 55m 24s
True Declination0° 00' 00"
Sunlit
Object was in daylight at TLE epoch
Visualization TLE readout
Latitude32.02351°
Longitude122.61165°
Altitude458.273 km
Speed7.646 km/s
Apparent Right ascension21h 01m 36s
Apparent Declination-20° 46' 47"
Sunlit
Object is in daylight
Visualization observer readout
Local Sidereal Time17:52:38
Azimuth134.701° SE
Elevation15.021°
Doppler factor1
Orbital elements
Apogee altitude474.041 km
Perigee altitude460.953 km
Semi-major axis6,845.634 km
Eccentricity0.000956
Inclination34.9443°
RAAN163.8507°
Arg. of periapsis132.4179°
True anomaly227.65379°
Mean anomaly227.7348°
Eccentric anomaly227.69429°
Mean motion3.83197 °/min
BSTAR0.00060209
Orbital period93.95 mins
Loading maneuver chart data...
Loading historical data...
Loading historical data...
Loading historical data...
Loading historical data...
Loading historical data...
Loading historical data...
Loading historical data...

CYGFM01 Visibility forecast

Observer location: undefined°, undefined

Span
Click to sort rows by Start time (UTC) header in descending order
Start Az.
Max El. time (UTC)
Max El. Az.
Max El.
End time (UTC)
End Az.
4 mins2024-12-27 16:13:07.556Z218.324° SW2024-12-27 16:14:07.556Z189.134° SSW29.025°2024-12-27 16:17:07.556Z113.187° SE
5 mins2024-12-27 17:51:07.556Z242.076° WSW2024-12-27 17:53:07.556Z193.253° SSW27.139°2024-12-27 17:56:07.556Z128.898° SE
|